TimeCDT,TemperatureF,Dew PointF,Humidity,Sea Level PressureIn,VisibilityMPH,Wind Direction,Wind SpeedMPH,Gust SpeedMPH,PrecipitationIn,Events,Conditions,WindDirDegrees,DateUTC
12:53 AM,39.0,21.0,49,30.26,10.0,WNW,6.9,-,N/A,,Clear,300,2011-11-04 05:53:00
1:53 AM,37.0,23.0,57,30.25,10.0,NW,4.6,-,N/A,,Clear,320,2011-11-04 06:53:00
2:53 AM,39.9,19.9,45,30.23,10.0,NNW,3.5,-,N/A,,Clear,340,2011-11-04 07:53:00
3:53 AM,39.0,21.0,49,30.22,10.0,Calm,Calm,-,N/A,,Clear,0,2011-11-04 08:53:00
4:53 AM,37.9,21.0,51,30.22,10.0,NNW,3.5,-,N/A,,Clear,340,2011-11-04 09:53:00
5:53 AM,37.0,21.9,54,30.23,10.0,Calm,Calm,-,N/A,,Clear,0,2011-11-04 10:53:00
6:53 AM,37.0,21.9,54,30.23,10.0,NW,3.5,-,N/A,,Clear,310,2011-11-04 11:53:00
7:53 AM,37.0,23.0,57,30.25,10.0,NW,4.6,-,N/A,,Clear,310,2011-11-04 12:53:00
8:53 AM,43.0,24.1,47,30.26,10.0,NW,3.5,-,N/A,,Clear,320,2011-11-04 13:53:00
9:53 AM,52.0,23.0,32,30.27,10.0,NE,6.9,-,N/A,,Clear,40,2011-11-04 14:53:00
10:53 AM,55.0,21.9,28,30.26,10.0,Variable,5.8,-,N/A,,Clear,0,2011-11-04 15:53:00
11:53 AM,57.0,19.9,24,30.24,10.0,East,3.5,-,N/A,,Clear,90,2011-11-04 16:53:00
12:53 PM,60.1,19.9,21,30.20,10.0,East,4.6,-,N/A,,Clear,80,2011-11-04 17:53:00
1:53 PM,62.6,19.4,19,30.18,10.0,Variable,5.8,-,N/A,,Clear,0,2011-11-04 18:53:00
2:53 PM,64.0,19.9,18,30.12,10.0,SSE,5.8,-,N/A,,Clear,160,2011-11-04 19:53:00
3:53 PM,64.9,19.9,18,30.09,10.0,Calm,Calm,-,N/A,,Clear,0,2011-11-04 20:53:00
4:53 PM,66.0,21.0,18,30.08,10.0,Calm,Calm,-,N/A,,Clear,0,2011-11-04 21:53:00
5:53 PM,64.9,21.0,19,30.06,10.0,SSE,3.5,-,N/A,,Clear,150,2011-11-04 22:53:00
6:53 PM,57.9,23.0,26,30.06,10.0,ESE,5.8,-,N/A,,Partly Cloudy,110,2011-11-04 23:53:00
7:53 PM,55.9,23.0,28,30.08,10.0,SE,4.6,-,N/A,,Clear,130,2011-11-05 00:53:00
8:53 PM,57.0,25.0,29,30.08,10.0,East,3.5,-,N/A,,Clear,90,2011-11-05 01:53:00
9:53 PM,54.0,26.1,34,30.08,10.0,Calm,Calm,-,N/A,,Clear,0,2011-11-05 02:53:00
10:53 PM,53.1,28.9,40,30.08,10.0,Calm,Calm,-,N/A,,Clear,0,2011-11-05 03:53:00
11:53 PM,48.0,33.1,56,30.08,10.0,Calm,Calm,-,N/A,,Clear,0,2011-11-05 04:53:00